FW5818 Weather Reports


Display with metric or nautical units.
time (UTC)temp
F
wind
direction
speed
MPH
gust
MPH
rain 1hr
in
rain 24hr
in
rain mn
in
humidity
%
barometer
mb
20260509180100 80 0 2.0 6.0 0.00 0.00 0.00 60 1011.7
20260509174545 80 243 1.0 7.0 0.00 0.00 0.00 60 1011.9
20260509173041 79 255 2.0 5.0 0.00 0.00 0.00 62 1012.0
20260509171548 79 101 1.0 8.0 0.00 0.00 0.00 62 1011.8
20260509170059 78 53 2.0 6.0 0.00 0.00 0.00 66 1012.0
20260509164615 78 71 2.0 7.0 0.00 0.00 0.00 68 1011.9
20260509163056 76 213 2.0 8.0 0.00 0.00 0.00 69 1011.8
20260509161552 75 0 2.0 10.0 0.00 0.00 0.00 70 1011.8
20260509160046 74 217 2.0 7.0 0.00 0.00 0.00 73 1012.0
20260509154550 73 262 1.0 6.0 0.00 0.00 0.00 76 1011.9
20260509153050 72 217 1.0 5.0 0.00 0.00 0.00 76 1011.8
20260509151547 71 205 2.0 4.0 0.00 0.00 0.00 76 1011.9
20260509150104 70 0 1.0 3.0 0.00 0.00 0.00 81 1011.9
20260509144548 68 0 1.0 4.0 0.00 0.00 0.00 81 1012.0
20260509143053 67 5 2.0 3.0 0.00 0.00 0.00 85 1012.0
20260509141546 65 0 0.0 2.0 0.00 0.00 0.00 90 1012.3
20260509134545 62 0 0.0 0.0 0.00 0.00 0.00 95 1012.5
20260509133058 61 0 0.0 1.0 0.00 0.00 0.00 96 1012.4
20260509131543 59 0 0.0 0.0 0.00 0.00 0.00 96 1012.3
20260509130053 58 0 0.0 0.0 0.00 0.00 0.00 96 1012.1
20260509124554 57 0 0.0 0.0 0.00 0.00 0.00 96 1012.1
20260509123045 56 0 0.0 0.0 0.00 0.00 0.00 96 1012.1
20260509121555 54 0 0.0 0.0 0.00 0.00 0.00 94 1012.0
20260509120049 54 0 0.0 0.0 0.00 0.00 0.00 93 1011.8
20260509114558 54 0 0.0 0.0 0.00 0.00 0.00 93 1011.4
20260509113045 54 0 0.0 0.0 0.00 0.00 0.00 93 1011.2
20260509111543 54 0 0.0 0.0 0.00 0.00 0.00 92 1010.9
20260509110049 54 0 0.0 0.0 0.00 0.00 0.00 92 1010.6
20260509104547 55 0 0.0 0.0 0.00 0.00 0.00 92 1010.2
20260509103048 55 0 0.0 0.0 0.00 0.00 0.00 92 1010.1
20260509101547 55 0 0.0 0.0 0.00 0.00 0.00 91 1010.2
20260509100047 56 0 0.0 0.0 0.00 0.00 0.00 91 1010.2
20260509094549 56 0 0.0 0.0 0.00 0.00 0.00 90 1009.9
20260509093041 57 0 0.0 0.0 0.00 0.00 0.00 90 1010.1
20260509091555 58 0 0.0 0.0 0.00 0.00 0.00 90 1010.3
20260509090100 58 0 0.0 0.0 0.00 0.00 0.00 89 1010.3
20260509084547 59 0 0.0 0.0 0.00 0.00 0.00 89 1010.3
20260509083053 60 0 0.0 2.0 0.00 0.00 0.00 89 1010.0
20260509081549 60 0 0.0 5.0 0.00 0.00 0.00 88 1009.9
20260509080104 60 225 0.0 3.0 0.00 0.00 0.00 87 1010.0
20260509074547 60 0 0.0 3.0 0.00 0.00 0.00 87 1010.3
20260509073042 61 0 0.0 4.0 0.00 0.00 0.00 87 1010.4
20260509071558 61 235 1.0 4.0 0.00 0.00 0.00 87 1010.4
20260509070050 61 0 0.0 1.0 0.00 0.00 0.00 86 1010.3
20260509064543 61 0 0.0 5.0 0.00 0.00 0.00 87 1010.5
20260509063051 60 0 1.0 7.0 0.00 0.00 0.00 87 1010.4
20260509061545 60 0 0.0 3.0 0.00 0.00 0.00 87 1010.3
20260509060049 60 0 0.0 3.0 0.00 0.00 0.00 88 1010.4
20260509054543 60 154 0.0 2.0 0.00 0.00 0.00 90 1010.7
20260509053047 59 0 0.0 2.0 0.00 0.00 0.00 90 1010.9
20260509051547 59 0 0.0 2.0 0.00 0.00 0.00 90 1011.6
20260509050058 59 0 0.0 0.0 0.00 0.00 0.00 90 1011.7
20260509044542 59 0 0.0 0.0 0.00 0.00 0.00 90 1012.4
20260509043047 59 0 0.0 0.0 0.00 0.00 0.00 89 1012.3
20260509041546 59 0 0.0 0.0 0.00 0.00 0.00 90 1013.0
20260509040048 59 0 0.0 1.0 0.00 0.00 0.00 89 1012.8
20260509034546 59 0 0.0 0.0 0.00 0.00 0.00 88 1012.5
20260509033102 59 0 0.0 0.0 0.00 0.00 0.00 88 1013.1
20260509031552 59 0 0.0 1.0 0.00 0.00 0.00 88 1012.9
20260509030054 59 0 0.0 0.0 0.00 0.00 0.00 87 1012.7
20260509024552 59 0 0.0 0.0 0.00 0.00 0.00 86 1011.6
20260509023044 60 0 0.0 0.0 0.00 0.00 0.00 84 1011.0
20260509021546 61 0 0.0 0.0 0.00 0.00 0.00 82 1010.9
20260509020047 62 0 0.0 0.0 0.00 0.00 0.00 81 1010.6
20260509014547 63 0 0.0 0.0 0.00 0.00 0.00 78 1010.4
20260509013049 65 0 0.0 0.0 0.00 0.00 0.00 75 1010.7
20260509011553 66 0 0.0 0.0 0.00 0.00 0.00 72 1010.5
20260509010054 67 0 0.0 0.0 0.00 0.00 0.00 71 1010.3
20260509004555 69 0 0.0 1.0 0.00 0.00 0.00 69 1010.3
20260509003047 70 0 0.0 0.0 0.00 0.00 0.00 66 1010.2
20260509001551 71 0 0.0 3.0 0.00 0.00 0.00 63 1010.3
20260509000048 72 0 0.0 3.0 0.00 0.00 0.00 60 1010.3
20260508234542 73 0 0.0 5.0 0.00 0.00 0.00 60 1010.4
20260508233049 74 185 1.0 6.0 0.00 0.00 0.00 54 1010.5
20260508231553 75 202 0.0 3.0 0.00 0.00 0.00 54 1010.4
20260508230053 75 0 0.0 4.0 0.00 0.00 0.00 54 1010.4
20260508224602 75 0 1.0 6.0 0.00 0.00 0.00 56 1010.3
20260508223051 75 111 1.0 5.0 0.00 0.00 0.00 53 1010.4
20260508221554 75 0 0.0 7.0 0.00 0.00 0.00 54 1010.4
20260508220049 75 215 0.0 4.0 0.00 0.00 0.00 51 1010.3
20260508214548 75 213 1.0 5.0 0.00 0.00 0.00 52 1010.4
20260508213044 75 0 1.0 7.0 0.00 0.00 0.00 50 1010.8
20260508211549 75 36 1.0 6.0 0.00 0.00 0.00 50 1011.1
20260508210048 74 180 0.0 7.0 0.00 0.00 0.00 53 1011.2
20260508204548 74 207 0.0 7.0 0.00 0.00 0.00 57 1011.4
20260508203044 74 213 3.0 9.0 0.00 0.00 0.00 52 1011.7
20260508201547 74 144 2.0 7.0 0.00 0.00 0.00 54 1011.7
20260508200051 74 190 1.0 6.0 0.00 0.00 0.00 58 1012.1
20260508194544 73 141 1.0 7.0 0.00 0.00 0.00 54 1012.6
20260508193058 73 113 2.0 9.0 0.00 0.00 0.00 55 1012.7
20260508191547 73 108 1.0 9.0 0.00 0.00 0.00 54 1012.9
20260508190046 73 0 1.0 5.0 0.00 0.00 0.00 56 1013.1
20260508184543 73 156 0.0 6.0 0.00 0.00 0.00 58 1013.3
20260508183103 73 0 1.0 6.0 0.00 0.00 0.00 56 1013.3
20260508181604 73 136 0.0 5.0 0.00 0.00 0.00 57 1013.6